Regional Weather Roundup
Issued by NWS

Home | Current Version | Previous Version | Graphics & Text | Print | Product List | Glossary On
Versions: 1 2 3 4 5 6 7 8 9 10 11 12 13 14 15 16 17 18 19 20 21 22 23 24 25 26 27 28 29 30 31 32 33 34 35 36 37 38 39 40 41 42 43 44 45 46 47 48 49 50
000
ASUS45 KBOU 241407
RWRCO

WEATHER ROUNDUP FOR COLORADO
NATIONAL WEATHER SERVICE DENVER/BOULDER CO
700 AM MST WED DEC 24 2014

NOTE: "FAIR" INDICATES FEW OR NO CLOUDS BELOW 12000 FEET WITH NO
SIGNIFICANT WEATHER AND/OR OBSTRUCTIONS TO VISIBILITY.

COZ001>005-013-030-031-241500-
...NORTHWEST COLORADO...

CITY           SKY/WX    TMP DP  RH WIND       PRES   REMARKS
CRAIG          PTCLDY     2  -3  80 S5        30.18S WCI  -8
HAYDEN         MOCLDY     9   1  72 E12       30.15S WCI  -6
MEEKER         PTCLDY     3  -3  76 NE8       30.18S WCI -10
MOUNT WERNER   NOT AVBL
STEAMBOAT SPGS MOCLDY     2  -1  85 CALM      30.17R
WALDEN         MOCLDY     0  -6  78 E6        30.08R WCI -12
$$

COZ006>008-011-241500-
...WEST CENTRAL VALLEYS...

CITY           SKY/WX    TMP DP  RH WIND       PRES   REMARKS
GRAND JUNCTION CLEAR     20  13  74 SE8       30.24S WCI  10
MONTROSE       PTCLDY    12   6  77 S6        30.26R WCI   3
EAGLE          CLEAR     -2  -6  84 CALM      30.29S
RIFLE          PTCLDY    11   5  77 E5        30.27S WCI   3
DELTA          PTCLDY    16   8  68 E5        30.28R WCI   9
NUCLA          PTCLDY    14   9  79 SE7       30.24S WCI   4
$$

COZ017>023-064>068-241500-
...SOUTHWEST COLORADO...

CITY           SKY/WX    TMP DP  RH WIND       PRES   REMARKS
DURANGO        PTCLDY    10   5  80 NW3       30.14R
CORTEZ         CLEAR     15   8  73 NE8       30.18R WCI   4
PAGOSA SPRINGS PTCLDY     4  -3  74 CALM      30.11F
TELLURIDE      PTCLDY    12  -2  53 E5        30.13R WCI   4
WOLF CREEK PAS PTCLDY    18   3  53 MISG      30.04S
$$

COZ009-010-012-014-032>034-037-058>063-241500-
...CENTRAL COLORADO...

CITY           SKY/WX    TMP DP  RH WIND       PRES   REMARKS
ASPEN          PTCLDY    -2  -8  76 S6        30.15S WCI -14
BUENA VISTA    CLEAR     12  -4  48 SW7       30.03R WCI   2
COPPER MTN     MOCLDY    10   5  79 W17       30.03R WCI  -7
BERTHOUD PASS  NOT AVBL
COTTONWOOD PAS CLEAR     23   1  39 SE3       29.98S
GUNNISON       PTCLDY   -13 N/A N/A CALM      30.24R
KREMMLING      MOCLDY    -4  -9  77 CALM      30.21S
LEADVILLE      PTCLDY     4  -5  66 NE9       30.04R WCI -10
MONARCH PASS   PTCLDY     3  -4  72 MISG      30.09S
SALIDA         CLEAR     16   1  51 W6        30.11S WCI   7
SUNLIGHT         N/A    N/A N/A N/A MISG      30.10R
WILKERSON PASS PTCLDY    19   9  63 N18G37    29.95S WCI   4
$$

COZ069>075-241500-
...SAN LUIS VALLEY/SANGRE DE CRISTO MOUNTAINS...

CITY           SKY/WX    TMP DP  RH WIND       PRES   REMARKS
ALAMOSA        MOCLDY    -1  -8  72 SW6       30.11R WCI -13
LA VETA PASS   MOCLDY     3  -6  66 SW7G18    29.95R WCI  -9
SAGUACHE       PTCLDY    12   0  57 NE5       30.10R WCI   4
$$

COZ035-036-038>040-241500-
...NORTHERN COLORADO FRONT RANGE...

CITY           SKY/WX    TMP DP  RH WIND       PRES   REMARKS
DENVER INTL AP PTCLDY    24   5  44 S13       29.88F WCI  12
DMNS CITY PARK   N/A     22   4  46 S6        29.89F WCI  14
AURORA         PTCLDY    20   3  48 S10       29.89F WCI   9
FRONT RANGE AP PTCLDY    21  10  63 S8        29.89S WCI  12
ERIE MUNI ARPT   N/A     13   9  83 CALM      29.90F
BOULDER MUN AP PTCLDY    21  12  68 CALM      29.88F
CENTENNIAL     PTCLDY    18   6  59 S8        29.88F WCI   8
BROOMFIELD     PTCLDY    23   9  54 CALM      29.88F
FORT COLLINS   PTCLDY    16   7  67 CALM      29.91F
LONGMONT       PTCLDY    14   8  79 CALM      29.92F
$$

COZ041-046-047-076>085-087-088-241500-
...PIKES PEAK/PALMER DIVIDE AND SOUTHERN FOOTHILLS...

CITY           SKY/WX    TMP DP  RH WIND       PRES   REMARKS
COLO. SPRINGS  PTCLDY    11   3  70 N7        29.94F WCI   0
A. F. ACADEMY  CLEAR      5  -2  73 N9        29.92F WCI  -9
ELLICOTT       NOT AVBL
FALCON         PTCLDY    13   1  58 W9        29.92F WCI   1
FORT CARSON    PTCLDY    14   3  60 N9        29.93F WCI   2
LIMON          PTCLDY     7   2  80 N6        29.93F WCI  -3
MONUMENT HILL  PTCLDY    18   0  45 SW14      29.87F WCI   4
TRINIDAD         N/A    N/A N/A N/A MISG      30.00F
$$

COZ042>045-048>051-090-091-241500-
...NORTHEAST COLORADO...

CITY           SKY/WX    TMP DP  RH WIND       PRES   REMARKS
GREELEY ARPT   PTCLDY     7  -2  66 N5        29.90F WCI  -2
AKRON          PTCLDY    16   7  67 SW8       29.91F WCI   5
BURLINGTON     PTCLDY    13   6  74 W10       29.94F WCI   0
WRAY           PTCLDY    10   7  86 W6        29.96S WCI   1
STERLING       PTCLDY    12   9  85 SW8       29.93S WCI   1
HOLYOKE        PTCLDY    18  12  79 W9        29.92F WCI   6
FORT MORGAN    PTCLDY    10   5  80 W12       29.93F WCI  -4
$$

COZ086-089-092>099-241500-
...SOUTHEAST COLORADO...

CITY           SKY/WX    TMP DP  RH WIND       PRES   REMARKS
PUEBLO         PTCLDY     9   4  80 W3        30.00F
LA JUNTA       PTCLDY    17  10  74 W10       30.01F WCI   5
LAMAR          CLEAR     19  13  77 SW9       30.00F WCI   8
SPRINGFIELD      N/A     16   9  74 W10       30.01S WCI   4
$$



USA.gov is the U.S. government's official web portal to all federal, state and local government web resources and services.